STARLINK-37468, 68857

Orbit data source: Space-Track

STARLINK-37468, 68857 is a payload satellite owned by SpaceX/Seattle (US) in SSO that was launched on Sun, 26 Apr 2026 UTC via an FALCON 9 launch vehicle from the Air Force Western Test Range (AFWTR). Payload-class satellites include a variety of spacecraft equipped with specific instruments for various scientific and technological missions. These include communications satellites like Starlink; space stations such as the ISS; scientific satellites like the Hubble; Earth observation satellites from companies like Planet Labs, Umbra, and HawkEye 360; GPS; miniature CubeSats for education and research; and military/defense satellites.

Loading next visibility...
Identifier
68857, 2026-094U
Orbit
SSO
Country
Flag of USUS
Related business
Manufacturer
SpaceX/Seattle
Mission
Operational spacecraft
Bus & Motor
STARLINK V2MO, Unknown motor
Mass
575 kg wet, ~530 kg dry
Launch date (UTC)
2026-04-26 (2 months ago)
Launch vehicle
FALCON 9
Launch site
Air Force Western Test Range (AFWTR)
Object type
Payload
Rocket body
Debris
Shape & HBR
Unknown shape, 14.5 m
Radar Cross Section
Large (>1 m²)

Expand to show TLE details & history
Last TLE update: 22 hours ago

TLE from 22 hours ago
0 STARLINK-37468
1 68857U 26094U   26170.92461080  .00016838  00000-0  52255-3 0  9999
2 68857  97.2850 185.4162 0001012 108.3956 251.7397 15.33456502  8477
Epoch: 2026-06-19T22:11Z
TLE epoch observation values (Epoch: 2026-06-19T22:11:26.373Z)
Latitude
0.00001°
Longitude
-55.59029°
Altitude
468.838 km
Speed
7.632 km/s
True Right ascension
12h 21m 39s
True Declination
0° 00' 00"
Sunlit
Object was in daylight at epoch
Visualization orbit readout
Latitude
Unknown
Longitude
Unknown
Altitude
Unknown
Speed
Unknown
Apparent Right ascension
Unknown
Apparent Declination
Unknown
Sunlit
N/A
Visualization observer readout
Local Sidereal Time
07:15:27
Azimuth
Unknown
Elevation
Unknown
Doppler factor
Unknown
Orbital elements
Apogee altitude
463.144 km
Perigee altitude
461.759 km
Semi-major axis
6,840.589 km
Eccentricity
0.0001
Inclination
97.285°
RAAN
185.4162°
Arg. of periapsis
108.3956°
True anomaly
251.72869°
Mean anomaly
251.7397°
Eccentric anomaly
251.73419°
Mean motion
3.83622 °/min
Orbital period
93.84 mins
BSTAR
0.00052255
Loading maneuver chart data...
Computing Atmospheric mass density...
Loading historical data...
Loading historical data...
Loading historical data...
Loading historical data...
Loading historical data...
Loading historical data...
Loading historical data...

Documentation

Showing up to 5 results
|